Regional Weather Roundup
Issued by NWS

Home | Current Version | Previous Version | Graphics & Text | Print | Product List | Glossary On
Versions: 1 2 3 4 5 6 7 8 9 10 11 12 13 14 15 16 17 18 19 20 21 22 23 24 25 26 27 28 29 30 31 32 33 34 35 36 37 38 39 40 41 42 43 44 45 46 47 48 49 50
065
ASUS43 KDTX 191001
RWRMI
MICHIGAN HOURLY REGIONAL WEATHER ROUNDUP
NATIONAL WEATHER SERVICE DETROIT/PONTIAC MI
600 AM EDT THU APR 19 2018

NOTE: "FAIR" INDICATES FEW OR NO CLOUDS BELOW 12,000 FEET WITH NO
SIGNIFICANT WEATHER AND/OR OBSTRUCTION TO VISIBILITY.

MIZ047>049-052>055-059>063-066>070-074>076-081>083-191100-
SOUTHEAST LOWER MICHIGAN

CITY           SKY/WX    TMP DP  RH WIND       PRES   REMARKS
ADRIAN         CLOUDY    32  30  92 N7        29.97R WCI  26
ALMA           FAIR      30  27  86 W5        30.01R WCI  25
ANN ARBOR      CLOUDY    34  28  79 NW7       29.95R WCI  28
BAD AXE        FAIR      35  20  55 N15G23    29.93R WCI  25
CARO           FAIR      32  25  74 N8        29.95R WCI  25
DETROIT CITY     N/A    N/A N/A N/A MISG      29.93R
DETROIT        CLOUDY    35  26  69 NW8       29.94R WCI  29
FLINT          FAIR      31  26  82 NW8       29.96R WCI  23
GROSSE ILE     CLOUDY    35  27  73 N8        29.93R WCI  29
HILLSDALE      CLOUDY    32  30  93 NW9       29.96R WCI  24
HOWELL         MOCLDY    32  28  86 NW6       29.96R WCI  26

CITY           SKY/WX    TMP DP  RH WIND       PRES   REMARKS
JACKSON        CLOUDY    33  29  85 W7        29.98R WCI  27
LAMBERTVILLE   LGT SNOW  34  31  89 NW5       29.95R WCI  30
LANSING        FAIR      30  27  88 MISG      30.00R
LAPEER         CLOUDY    32  26  79 NW7       29.94R WCI  26
MASON          FAIR      32  27  79 NW7       29.98R WCI  26
MONROE         CLOUDY    34  28  79 N6        29.94R WCI  29
PONTIAC        CLOUDY    33  26  75 NW8       29.92R WCI  26
PORT HOPE        N/A     34  26  72 N20G29    29.91R WCI  23
PORT HURON     CLOUDY    34  25  69 NW6       29.91R WCI  29
TRI CITIES     FAIR      31  24  75 NW8       29.98R WCI  23
MIDLAND        NOT AVBL
TROY           CLOUDY    36  26  68 NW8       29.95R WCI  29
SAGINAW HB     FAIR      32  27  80 NW7       29.97R WCI  26
$$
MIZ043>046-050>051-056>058-064>065-071>073-077>080-191100-
SOUTHWEST LOWER MICHIGAN

CITY           SKY/WX    TMP DP  RH WIND       PRES   REMARKS
BATTLE CREEK   FAIR      33  29  85 NW7       30.01R WCI  27
BENTON HARBOR  FAIR      36  31  82 VRB5      30.07R WCI  32
BIG RAPIDS     FAIR      32  22  65 N9        30.02R WCI  24
COLDWATER      CLOUDY    32  32  99 NW7       30.00R WCI  26
FREMONT        FAIR      25  21  86 W6        30.05R WCI  18
HOLLAND        FAIR      33  29  85 N6        30.07R WCI  28
GRAND RAPIDS   FAIR      32  28  85 NW8       30.03R WCI  25
IONIA          FAIR      30  28  90 NW8       30.01R WCI  23
KALAMAZOO      FAIR      33  30  88 NW9       30.03R WCI  25
LUDINGTON      FAIR      33  23  66 N8        30.07R WCI  26
MARSHALL       CLOUDY    32  30  92 NW3       29.99R
MOUNT PLEASANT FAIR      34  24  67 N5        29.99R WCI  29
MUSKEGON       FAIR      32  26  78 NW7       30.08R WCI  26
SOUTH HAVEN    FAIR      34  31  87 N3        30.06R
$$
MIZ016>042-191100-
NORTHERN LOWER MICHIGAN

CITY           SKY/WX    TMP DP  RH WIND       PRES   REMARKS
ALPENA         FAIR      31  21  66 N16       30.00R WCI  20
BEAVER ISLAND  FAIR      32  22  67 N13G18    30.11R WCI  22
BELLAIRE       FAIR      31  23  72 N5        30.08R WCI  26
CADILLAC       FAIR      29  22  78 N8        30.02R WCI  21
CHARLEVOIX     FAIR      32  25  73 N16G23    30.11R WCI  22
FRANKFORT      FAIR      35  25  67 N7        30.10R WCI  29
GAYLORD        FAIR      28  19  69 VRB3      30.01R
GRAYLING       FAIR      28  19  68 N10       30.00R WCI  19
HARBOR SPRINGS FAIR      30  20  66 N6        30.07R WCI  24
HOUGHTON LAKE  FAIR      30  19  63 N9        30.00R WCI  22
MANISTEE       FAIR      32  21  64 W3        30.09R
OSCODA         FAIR      32  19  59 N15       29.96R WCI  22
PELLSTON       FAIR      29  20  69 NW13      30.08R WCI  19
ROGERS CITY    FAIR      32  22  68 N13G22    30.03S WCI  22
TRAVERSE CITY  FAIR      35  24  64 N13G21    30.08R WCI  26
$$
MIZ007>008-015-191100-
EASTERN UPPER MICHIGAN

CITY           SKY/WX    TMP DP  RH WIND       PRES   REMARKS
KINROSS        FAIR      26  19  74 NW10      30.06R WCI  16
MACKINAC ISLAN FAIR      30  21  68 N14G22    30.06R WCI  19
NEWBERRY       FAIR      28  23  81 N8        30.10R WCI  20
S. S. MARIE    FAIR      30  17  58 W7        30.07R WCI  23
MUNISING         N/A     28  24  85 N10       30.17R WCI  19
$$
MIZ004>006-011>014-085-191100-
CENTRAL UPPER MICHIGAN

CITY           SKY/WX    TMP DP  RH WIND       PRES   REMARKS
MANISTIQUE     FAIR      30  24  77 N12       30.13R WCI  20
ESCANABA       FAIR      31  24  75 N9        30.16R WCI  23
MENOMINEE      FAIR      31  21  66 N10       30.18R WCI  22
$$
MIZ001>003-009>011-084-191100-
WESTERN UPPER MICHIGAN

CITY           SKY/WX    TMP DP  RH WIND       PRES   REMARKS
IRON MOUNTAIN  FAIR      29  18  63 NW9       30.17R WCI  20
HOUGHTON       FAIR      26  19  74 NW5       30.23R WCI  20
COPPER HARBOR    N/A     28  23  81 N6        30.24R WCI  22
IRONWOOD       FAIR      13  11  92 SW3       30.29R
$$

ABBREVIATIONS USED IN REMARKS
   TC - TEMPERATURE IN CELSIUS
  WCI - WIND CHILL INDEX
   HX - HEAT INDEX
  VSB - VISIBILITY





USA.gov is the U.S. government's official web portal to all federal, state and local government web resources and services.